map of BFL home
BFL - Airport
Location
City:  Bakersfield, California, United States
Near (Alt.):Oildale
Name:Meadows Field
ICAO:KBFL
IATA:BFL
FAA LID:BFL

Details
Type:Airport (Part 139 Class I)
Use:Public/Civil
Latitude:35°26'02"N (35.433861)
Longitude:119°03'28"W (-119.057666)
Datum:WGS 1984
Elevation:509 ft (155 m)
Variation:12.35°E (WMM2015 magnetic declination)
-0.09° annual change
Runways:2
Longest:10849 × 150 ft (3307 × 45.5 m), paved

Time
Time Zone:UTC-8 (DST-7)
Local Time:

Weather
METAR:KBFL 230154Z 33004KT 10SM CLR 23/05 A2986 RMK AO2 SLP107 T02280050
TAF:KBFL 222320Z 2300/2324 VRB06KT P6SM SKC

Related Locations
Nearby:
Farthest:ZSE: 11404 mi / 18353 km
St-Pierre (St-Pierre de la Réunion) [Pierrefonds], RE

Find:

   beyond  
but within

Other Information
Maps:
Delays:
NOTAMs:
Links:
Sources:

  
  • flag of United States
  • flag of California
  

Airport Diagram

Airport diagram for BFL

Airport diagram PDF

Sectional Chart

Flight Planning
at skyvector.com

Satellite Image

Google Maps Satellite view

 

Copyright © 2004-2018 Karl L. Swartz. All rights reserved.
The Great Circle Mapper name and logo are trademarks of the Great Circle Mapper.
All other trademarks mentioned herein belong to their respective owners.
Please see credits for attibutions and further copyright information.

  Follow gcmap on Facebook Follow gcmap on Twitter Follow gcmap on Google+ GCmap on LinkedIn

hCard Microformat

Geo Microformat